Regional Weather Roundup
Issued by NWS Little Rock, AR

Home | Current Version | Previous Version | Graphics & Text | Print | Product List | Glossary On
Versions: 1 2 3 4 5 6 7 8 9 10 11 12 13 14 15 16 17 18 19 20 21 22 23 24 25 26 27
000
ASUS44 KLZK 300305
RWRLZK

WEATHER ROUNDUP FOR ARKANSAS
NATIONAL WEATHER SERVICE LITTLE ROCK AR
1000 PM CDT FRI JUL 29 2016

NOTE: "FAIR" INDICATES FEW OR NO CLOUDS BELOW 12,000 FEET WITH NO
SIGNIFICANT WEATHER AND/OR OBSTRUCTIONS TO VISIBILITY.

ARZ001-003-010-029-300400-
NORTHWEST ARKANSAS

CITY           SKY/WX    TMP DP  RH WIND       PRES   REMARKS
FAYETTEVILLE   CLOUDY    74  74 100 S3        30.00R
FORT SMITH     CLOUDY    81  68  64 SE3       29.95R
HARRISON       CLOUDY    73  71  93 SE6       30.00R
BENTONVILLE    CLOUDY    75  66  73 CALM      30.00R
ROGERS         CLOUDY    75  71  87 SE5       30.01R
SILOAM SPGS    CLOUDY    75  63  64 CALM      30.01R
HIGHFILL       CLOUDY    75  72  90 W3        29.99R
$$

ARZ004-005-016-300400-
NORTH CENTRAL ARKANSAS

CITY           SKY/WX    TMP DP  RH WIND       PRES   REMARKS
BATESVILLE     CLOUDY    72  70  94 CALM      29.97S
FLIPPIN        CLOUDY    73  70  88 CALM      29.96R
MTN HOME       CLOUDY    72  71  97 CALM      29.98R
$$

ARZ040-041-300400-
WEST CENTRAL ARKANSAS

CITY           SKY/WX    TMP DP  RH WIND       PRES   REMARKS
MENA             N/A    N/A N/A N/A MISG        N/A
MOUNT IDA      RAIN      75  74  96 W3        29.98R FOG
$$

ARZ009-017-025-026-028-300400-
NORTHEAST ARKANSAS

CITY           SKY/WX    TMP DP  RH WIND       PRES   REMARKS
CORNING          N/A     72  72 100 SE3       29.96R
JONESBORO      CLOUDY    73  70  90 N3        29.97R
NEWPORT        CLOUDY    74  74 100 W3        29.97R
WALNUT RIDGE   PTCLDY    72  70  94 SW5       29.96R
BLYTHEVILLE    PTCLDY    74  72  93 CALM      29.96R
$$

ARZ022-023-033-042-044-300400-
CENTRAL ARKANSAS

CITY           SKY/WX    TMP DP  RH WIND       PRES   REMARKS
LITTLE ROCK    CLOUDY    77  72  84 E6        29.96R
N LITTLE ROCK    N/A     75  72  92 CALM      29.94R
JACKSONVILLE   CLOUDY    74  74 100 N3        29.96R
SEARCY         CLOUDY    72  72 100 S3        30.08R FOG
HOT SPRINGS    CLOUDY    75  70  84 SW3       29.99R
RUSSELLVILLE   LGT RAIN  76  74  93 CALM      29.97R
$$

ARZ036-300400-
EAST ARKANSAS

CITY           SKY/WX    TMP DP  RH WIND       PRES   REMARKS
WEST MEMPHIS   CLOUDY    72  71  97 CALM      29.95R
$$

ARZ050-053-066-070-073-300400-
SOUTHWEST ARKANSAS

CITY           SKY/WX    TMP DP  RH WIND       PRES   REMARKS
ARKADELPHIA    TSTM      72  70  93 S3        29.97S
CAMDEN         CLEAR     77  72  83 CALM      29.95R
TEXARKANA      CLOUDY    77  67  71 N15G21    30.00R
EL DORADO      CLEAR     80  77  90 S3        29.96R HX  87
DE QUEEN       LGT RAIN  71  70  96 SW3       29.98S
$$

ARZ056-057-069-300400-
SOUTHEAST ARKANSAS

CITY           SKY/WX    TMP DP  RH WIND       PRES   REMARKS
PINE BLUFF     PTCLDY    73  71  93 E3        29.98R
STUTTGART      MOCLDY    75  70  83 E3        29.97R
MONTICELLO     CLOUDY    76  73  91 CALM      29.98R

$$






USA.gov is the U.S. government's official web portal to all federal, state and local government web resources and services.